• In Uzbekistan
  • List of Countries
  • For 7 days
  • Water Temperature
  • Satellite Maps
  • Weather Map
  • Weather Widgets
  • user-avatar
    Login

    Hourly Weather Namibe

    Today, 20 February, Monday

    Time Temperature Precipitation Wind Pressure Humidity
    00:00 +27°C° 0 mm 1 mps 758 mmHg 72%
    01:00 +27°C° 0 mm 1 mps 758 mmHg 72%
    02:00 +27°C° 0 mm 1 mps 758 mmHg 73%
    03:00 +27°C° 0 mm 1 mps 758 mmHg 73%
    04:00 +27°C° 0 mm 1 mps 757 mmHg 74%
    05:00 +27°C° 0 mm 1 mps 758 mmHg 75%
    06:00 +26°C° 0 mm 1 mps 758 mmHg 76%
    07:00 +26°C° 0 mm 1 mps 758 mmHg 76%
    08:00 +28°C° 0 mm 2 mps 758 mmHg 67%
    09:00 +30°C° 0 mm 2 mps 758 mmHg 58%
    10:00 +33°C° 0 mm 3 mps 758 mmHg 49%
    11:00 +34°C° 0 mm 3 mps 758 mmHg 46%
    12:00 +35°C° 0 mm 4 mps 757 mmHg 43%
    13:00 +35°C° 0 mm 5 mps 757 mmHg 42%
    14:00 +34°C° 0 mm 5 mps 757 mmHg 45%
    15:00 +33°C° 0 mm 5 mps 757 mmHg 47%
    16:00 +33°C° 0 mm 5 mps 757 mmHg 50%
    17:00 +30°C° 0 mm 5 mps 757 mmHg 57%
    18:00 +28°C° 0 mm 4 mps 757 mmHg 65%
    19:00 +27°C° 0 mm 4 mps 758 mmHg 72%
    20:00 +26°C° 0 mm 3 mps 758 mmHg 74%
    21:00 +26°C° 0 mm 2 mps 759 mmHg 75%
    22:00 +26°C° 0 mm 2 mps 759 mmHg 77%
    23:00 +26°C° 0 mm 1 mps 759 mmHg 78%

    Tomorrow, 21 February, Tuesday

    Time Temperature Precipitation Wind Pressure Humidity
    00:00 +26°C° 0 mm 1 mps 759 mmHg 78%
    01:00 +25°C° 0 mm 1 mps 759 mmHg 79%
    02:00 +25°C° 0 mm 1 mps 758 mmHg 79%
    03:00 +25°C° 0 mm 1 mps 758 mmHg 80%
    04:00 +25°C° 0 mm 1 mps 758 mmHg 80%
    05:00 +25°C° 0 mm 1 mps 758 mmHg 80%
    06:00 +25°C° 0 mm 1 mps 758 mmHg 79%
    07:00 +25°C° 0 mm 1 mps 758 mmHg 79%
    08:00 +27°C° 0 mm 1 mps 758 mmHg 70%
    09:00 +29°C° 0 mm 2 mps 758 mmHg 62%
    10:00 +30°C° 0 mm 2 mps 758 mmHg 53%
    11:00 +33°C° 0 mm 3 mps 758 mmHg 49%
    12:00 +34°C° 0 mm 4 mps 758 mmHg 45%
    13:00 +35°C° 0 mm 5 mps 757 mmHg 40%
    14:00 +35°C° 0 mm 5 mps 757 mmHg 42%
    15:00 +34°C° 0 mm 5 mps 756 mmHg 44%
    16:00 +33°C° 0 mm 5 mps 756 mmHg 46%
    17:00 +32°C° 0 mm 5 mps 756 mmHg 53%
    18:00 +29°C° 0 mm 4 mps 757 mmHg 60%
    19:00 +27°C° 0 mm 4 mps 757 mmHg 68%
    20:00 +27°C° 0 mm 3 mps 757 mmHg 70%
    21:00 +26°C° 0 mm 3 mps 758 mmHg 73%
    22:00 +26°C° 0 mm 2 mps 759 mmHg 76%
    23:00 +26°C° 0 mm 2 mps 759 mmHg 76%

    Day after tomorrow, 22 February, Wednesday

    Time Temperature Precipitation Wind Pressure Humidity
    00:00 +26°C° 0 mm 2 mps 758 mmHg 77%
    01:00 +26°C° 0 mm 2 mps 758 mmHg 77%
    02:00 +25°C° 0 mm 2 mps 758 mmHg 78%
    03:00 +25°C° 0 mm 2 mps 758 mmHg 79%
    04:00 +25°C° 0 mm 2 mps 757 mmHg 79%
    05:00 +25°C° 0 mm 2 mps 757 mmHg 79%
    06:00 +25°C° 0 mm 2 mps 758 mmHg 79%
    07:00 +25°C° 0 mm 1 mps 758 mmHg 79%
    08:00 +27°C° 0 mm 2 mps 758 mmHg 70%
    09:00 +29°C° 0 mm 2 mps 758 mmHg 62%
    10:00 +30°C° 0 mm 2 mps 759 mmHg 53%
    11:00 +33°C° 0 mm 3 mps 758 mmHg 49%
    12:00 +34°C° 0 mm 4 mps 757 mmHg 45%
    13:00 +35°C° 0 mm 5 mps 757 mmHg 40%
    14:00 +35°C° 0 mm 5 mps 756 mmHg 42%
    15:00 +34°C° 0 mm 5 mps 756 mmHg 44%
    16:00 +33°C° 0 mm 5 mps 756 mmHg 46%
    17:00 +32°C° 0 mm 5 mps 756 mmHg 51%
    18:00 +29°C° 0 mm 5 mps 756 mmHg 57%
    19:00 +28°C° 0 mm 4 mps 757 mmHg 62%
    20:00 +27°C° 0 mm 4 mps 758 mmHg 66%
    21:00 +27°C° 0 mm 3 mps 758 mmHg 69%
    22:00 +26°C° 0 mm 3 mps 759 mmHg 72%
    23:00 +26°C° 0 mm 3 mps 759 mmHg 73%

    23 February, Thursday

    Time Temperature Precipitation Wind Pressure Humidity
    00:00 +26°C° 0 mm 2 mps 759 mmHg 74%
    01:00 +26°C° 0 mm 2 mps 758 mmHg 75%
    02:00 +25°C° 0 mm 2 mps 758 mmHg 77%
    03:00 +25°C° 0 mm 2 mps 758 mmHg 78%
    04:00 +25°C° 0 mm 2 mps 757 mmHg 80%
    05:00 +25°C° 0 mm 2 mps 758 mmHg 80%
    06:00 +25°C° 0 mm 2 mps 758 mmHg 80%
    07:00 +25°C° 0 mm 2 mps 758 mmHg 80%
    08:00 +26°C° 0 mm 2 mps 758 mmHg 71%
    09:00 +28°C° 0 mm 2 mps 758 mmHg 61%
    10:00 +30°C° 0 mm 2 mps 758 mmHg 51%
    11:00 +33°C° 0 mm 3 mps 758 mmHg 45%
    12:00 +35°C° 0 mm 4 mps 757 mmHg 40%
    13:00 +37°C° 0 mm 5 mps 757 mmHg 34%
    14:00 +36°C° 0 mm 5 mps 756 mmHg 37%
    15:00 +35°C° 0 mm 6 mps 756 mmHg 40%
    16:00 +35°C° 0 mm 7 mps 755 mmHg 43%
    17:00 +33°C° 0 mm 6 mps 755 mmHg 50%
    18:00 +30°C° 0 mm 6 mps 756 mmHg 57%
    19:00 +28°C° 0 mm 5 mps 756 mmHg 65%
    20:00 +27°C° 0 mm 5 mps 757 mmHg 67%
    21:00 +27°C° 0 mm 5 mps 757 mmHg 69%
    22:00 +26°C° 0 mm 4 mps 758 mmHg 72%
    23:00 +26°C° 0 mm 4 mps 758 mmHg 72%

    24 February, Friday

    Time Temperature Precipitation Wind Pressure Humidity
    00:00 +26°C° 0 mm 4 mps 757 mmHg 73%
    01:00 +26°C° 0 mm 4 mps 757 mmHg 73%
    02:00 +25°C° 0 mm 4 mps 757 mmHg 74%
    03:00 +25°C° 0 mm 3 mps 757 mmHg 76%
    04:00 +25°C° 0 mm 3 mps 756 mmHg 77%
    05:00 +25°C° 0 mm 3 mps 757 mmHg 77%
    06:00 +25°C° 0 mm 3 mps 757 mmHg 77%
    07:00 +25°C° 0 mm 2 mps 758 mmHg 77%
    08:00 +27°C° 0 mm 2 mps 758 mmHg 68%
    09:00 +29°C° 0 mm 2 mps 758 mmHg 59%
    10:00 +31°C° 0 mm 3 mps 758 mmHg 50%
    11:00 +34°C° 0 mm 4 mps 757 mmHg 45%
    12:00 +35°C° 0 mm 5 mps 757 mmHg 40%
    13:00 +38°C° 0 mm 6 mps 756 mmHg 35%
    14:00 +36°C° 0 mm 6 mps 756 mmHg 38%
    15:00 +35°C° 0 mm 6 mps 755 mmHg 41%
    16:00 +35°C° 0 mm 7 mps 755 mmHg 44%
    17:00 +33°C° 0 mm 6 mps 756 mmHg 50%
    18:00 +30°C° 0 mm 6 mps 756 mmHg 56%
    19:00 +28°C° 0 mm 5 mps 757 mmHg 62%
    20:00 +27°C° 0 mm 5 mps 757 mmHg 66%
    21:00 +27°C° 0 mm 4 mps 758 mmHg 69%
    22:00 +26°C° 0 mm 4 mps 758 mmHg 72%
    23:00 +26°C° 0 mm 4 mps 758 mmHg 74%

    25 February, Saturday

    Time Temperature Precipitation Wind Pressure Humidity
    00:00 +25°C° 0 mm 3 mps 758 mmHg 75%
    01:00 +25°C° 0 mm 3 mps 758 mmHg 77%
    02:00 +25°C° 0 mm 3 mps 757 mmHg 78%
    03:00 +25°C° 0 mm 3 mps 757 mmHg 79%
    04:00 +24°C° 0 mm 3 mps 757 mmHg 79%
    05:00 +24°C° 0 mm 3 mps 757 mmHg 79%
    06:00 +25°C° 0 mm 3 mps 758 mmHg 78%
    07:00 +25°C° 0 mm 3 mps 758 mmHg 77%
    08:00 +27°C° 0 mm 3 mps 758 mmHg 65%
    09:00 +30°C° 0 mm 2 mps 758 mmHg 53%
    10:00 +32°C° 0 mm 2 mps 758 mmHg 41%
    11:00 +35°C° 0 mm 3 mps 757 mmHg 37%
    12:00 +37°C° 0 mm 4 mps 757 mmHg 33%
    13:00 +40°C° 0 mm 5 mps 756 mmHg 29%
    14:00 +38°C° 0 mm 6 mps 756 mmHg 33%
    15:00 +36°C° 0 mm 6 mps 755 mmHg 37%
    16:00 +35°C° 0 mm 7 mps 755 mmHg 42%
    17:00 +33°C° 0 mm 6 mps 755 mmHg 47%
    18:00 +30°C° 0 mm 5 mps 756 mmHg 53%
    19:00 +29°C° 0 mm 5 mps 756 mmHg 59%
    20:00 +28°C° 0 mm 4 mps 757 mmHg 61%
    21:00 +28°C° 0 mm 4 mps 757 mmHg 62%
    22:00 +28°C° 0 mm 3 mps 757 mmHg 63%
    23:00 +27°C° 0 mm 3 mps 757 mmHg 63%
    Show more